Retour au catalogue

STARLINK-2699

ActifCommunicationsVLEO
NORAD 48433·PAYLOAD·🇺🇸 United States

Lancé May 9, 2021 depuis Cape Canaveral Space Force Station

Loading…

Prochains Passages (prochaines 24 heures)

TLE

FraisSource: CelesTrak SupGP

Époque: Sep 15, 2026, 02:09 UTC

1 48433C 21040F   26258.09006944  .00043108  00000+0  13861-2 0  2588
2 48433  53.1612 351.1925 0001135  92.5920  75.4738 15.31684085    11

Suivez STARLINK-2699 en temps réel avec AllMySat

Download on the App Store